Tracking 35035 objects as of 16-Aug-2026
HD Live streaming from Space Station
objects crossing your sky now

CZ-6A DEB

Track CZ-6A DEB now!
10-day predictions


NORAD ID: 54914
Int'l Code: 2022-151RB
Launch date: November 11, 2022
Source: People's Republic of China (PRC)
Launch site: Taiyaun Space Center, China (TSC)

Note: This is SATELLITE DEBRIS
Your satellite tracking list
Your tracking list is empty




NASA's NSSDC Master Catalog

Two Line Element Set (TLE):
1 54914U 22151RB  26227.96802003  .00000036  00000-0  42792-4 0  9998
2 54914  98.8109 225.7771 0040987 174.5921 185.5701 14.12104696193158
Source of the keplerian elements: AFSPC